Home > Weather > Windsor > Past weeks

Flag for Canada Past Weather in Windsor, Ontario, Canada — Yesterday and Last 2 Weeks

Now
77 °F

Passing clouds.


Feels Like: 79 °F
Forecast: N/A
Wind: 5 mph from East

Location: Windsor Weather Station

Current Time: Aug 29, 2016 at 7:40:35 PM

Latest Report: Aug 29, 2016 at 7:00 PM


Visibility: 15 mi

Pressure: 30.20 "Hg

Humidity: 65%

Dew Point: 64 °F

Location of WindsorLocation

Past Weather in Windsor — Graph

°F

Windsor Temperature Yesterday

Maximum temperature yesterday: 84 °F (at 1:00 PM)
Minimum temperature yesterday: 68 °F (at 2:00 AM)
Average temperature yesterday: 74 °F

High & Low Weather Summary for the Past Weeks

 TemperatureHumidityPressure
High86 °F (Aug 25, 3:00 PM)100% (Aug 15, 3:00 AM)30.28 "Hg (Aug 15, 3:00 AM)
Low55 °F (Aug 22, 7:00 AM)50% (Aug 22, 12:00 PM)29.60 "Hg (Aug 20, 10:00 PM)
Average73 °F83%30.04 "Hg
* Reported Aug 14 6:00 PM — Aug 29 6:00 PM, Windsor, Weather by CustomWeather, © 2016

Note: Actual official high and low records may vary slightly from our data, if they occured in-between our weather recording intervals... More about our weather records

Advertising

Windsor Weather History for the Previous 24 Hours

Scroll right to see more
 ConditionsComfort  
Time TempWeatherWind HumidityBarometerVisibility
6:00 PM
Mon, Aug 29
79 °FPassing clouds.5 mph58%30.20 "Hg15 mi
5:00 PM81 °FScattered clouds.5 mph54%30.22 "Hg15 mi
4:00 PM81 °FScattered clouds.6 mph62%30.23 "Hg15 mi
3:00 PM79 °FPassing clouds.6 mph65%30.26 "Hg15 mi
2:00 PM79 °FPassing clouds.5 mph70%30.27 "Hg15 mi
1:00 PM77 °FPassing clouds.3 mph74%30.28 "Hg15 mi
12:00 PM75 °FPassing clouds.8 mph74%30.28 "Hg15 mi
11:00 AM75 °FPassing clouds.9 mph74%30.28 "Hg15 mi
10:00 AM73 °FPassing clouds.12 mph74%30.28 "Hg15 mi
9:00 AM72 °FPassing clouds.8 mph83%30.27 "Hg15 mi
8:00 AM70 °FPassing clouds.7 mph94%30.27 "Hg12 mi
7:00 AM66 °FPassing clouds.7 mph100%30.26 "Hg12 mi
6:00 AM68 °FPassing clouds.6 mph94%30.24 "Hg15 mi
5:00 AM68 °FPassing clouds.6 mph94%30.22 "Hg15 mi
4:00 AM68 °FPassing clouds.3 mph94%30.22 "Hg15 mi
3:00 AM68 °FPassing clouds.5 mph94%30.22 "Hg15 mi
2:00 AM70 °FPassing clouds.5 mph88%30.22 "Hg15 mi
1:00 AM70 °FPassing clouds.6 mph94%30.22 "Hg15 mi
12:00 AM72 °FPassing clouds.9 mph88%30.22 "Hg15 mi
11:00 PM
Sun, Aug 28
73 °FPassing clouds.13 mph89%30.21 "Hg15 mi
10:00 PM72 °FPassing clouds.No wind100%30.18 "Hg15 mi
9:00 PM73 °FPartly sunny.3 mph94%30.16 "Hg15 mi
8:00 PM77 °FPartly sunny.2 mph89%30.14 "Hg12 mi
7:00 PM79 °FPartly sunny.6 mph89%30.14 "Hg12 mi
Weather by CustomWeather, © 2016

See weather overviewHow to use our weather pages